#timestamp,LO_Frequency,Hit,StdDev 
1544144415.2,286046992.8,N
1544144435.0,286046995.7,N
1544144435.9,286046995.7,N
1544144455.8,286046996.0,N
1544144475.6,286046994.8,N
1544144495.5,286046994.2,N
1544144515.3,286046994.8,N
1544144535.1,286046992.3,Y
1544144555.9,286046996.5,P
1544144575.7,286046995.3,P
1544144595.5,286046996.1,P
1544144615.4,286046994.9,Y
1544144635.2,286047001.6,P
1544144655.1,286047006.9,N
1544144656.0,286047006.9,N
1544144675.8,286047010.6,N
1544144695.6,286047012.3,N
1544144715.5,286047009.8,N
1544144735.3,286047015.0,N
1544144755.2,286047017.1,N
1544144775.9,286047013.0,N
1544144795.7,286047015.1,N
1544144815.6,286047018.1,N
1544144835.4,286047017.8,N
1544144855.2,286047015.9,N
1544144875.1,286047016.9,N
1544144876.0,286047016.9,N
1544144895.8,286047014.6,N
1544144915.7,286047015.4,N
1544144935.5,286047015.3,N
1544144955.3,286047016.7,N
1544144975.2,286047022.0,Y
1544144995.0,286047037.5,P
1544144995.9,286047009.0,N
1544145015.7,286047007.0,N
1544145035.6,286047005.9,N
1544145055.4,286047002.5,N
1544145075.3,286046999.9,N
1544145095.1,286046999.6,N
1544145096.0,286046999.6,N
1544145115.8,286046993.7,N
1544145135.7,286046994.7,N
1544145155.5,286046992.5,N
1544145175.3,286046989.2,N
1544145195.2,286046987.9,N
1544145215.0,286046987.3,N
1544145215.9,286046987.3,N
1544145235.8,286046990.7,N
1544145255.6,286046990.2,N
1544145275.4,286046990.3,N
1544145295.3,286046999.6,N
1544145315.1,286047005.4,N
1544145335.8,286047008.5,N
1544145355.7,286047006.2,N
1544145375.5,286047005.6,N
1544145395.4,286047002.4,N
1544145415.2,286047002.7,N
1544145435.0,286046999.5,N
1544145435.9,286046999.5,N
1544145455.8,286046994.3,N
1544145475.6,286046994.1,N
1544145495.4,286046993.7,N
1544145515.3,286046993.8,N
1544145535.1,286046996.3,N
1544145555.9,286046999.1,N
1544145575.7,286047004.3,N
1544145595.5,286047002.3,N
1544145615.4,286046998.2,N
1544145635.2,286047000.8,N
1544145655.1,286046998.4,N
1544145656.0,286046998.4,N
1544145675.8,286046995.7,N
1544145695.6,286046999.6,N
1544145715.5,286047003.2,N
1544145735.3,286046999.7,N
1544145755.2,286047000.0,N
1544145775.9,286047000.5,N
1544145795.7,286046999.6,N
1544145815.6,286046996.4,N
1544145835.4,286046993.5,N
1544145855.2,286046991.9,N
1544145875.1,286046988.9,N
1544145876.0,286046988.9,N
1544145895.8,286046985.5,Y
1544145915.7,286046986.2,P
1544145935.5,286046987.4,N
1544145955.3,286046989.9,N
1544145975.2,286046988.9,N
1544145995.0,286046991.8,N
1544145995.9,286046991.8,N
1544146015.7,286046994.7,N
1544146035.6,286046994.3,N
1544146055.4,286046990.3,N
1544146075.3,286046991.0,N
1544146095.1,286046989.7,Y
1544146115.8,286046995.9,P
1544146135.7,286046994.9,N
1544146155.5,286046993.3,P
1544146175.3,286046996.1,N
1544146195.2,286046999.3,N
1544146215.0,286046997.2,N
1544146215.9,286046997.2,N
1544146235.8,286046998.3,N
1544146255.6,286046998.6,N
1544146275.4,286046998.5,N
1544146295.3,286047002.8,N
1544146315.1,286047010.7,Y
1544146365.9,286047019.4,E
1544146375.8,286047014.5,N
1544146395.6,286047003.1,P
1544146415.5,286047005.3,N
1544146435.3,286047003.4,N
1544146455.2,286047003.1,N
1544146475.9,286047005.0,N
1544146495.7,286047007.4,N
1544146515.6,286047006.7,N
1544146535.4,286047004.7,N
1544146555.2,286047002.5,N
1544146575.1,286047002.6,N
1544146576.0,286047002.6,N
1544146595.8,286047001.0,N
1544146615.7,286047001.9,N
1544146635.5,286046998.2,N
1544146655.3,286046997.4,N
1544146675.2,286046993.3,N
1544146695.0,286046994.5,N
1544146695.9,286046994.5,N
1544146715.7,286046993.7,N
1544146735.6,286046996.3,N
1544146755.4,286046993.4,N
1544146775.3,286047000.5,N
1544146795.1,286047005.2,N
1544146796.0,286047005.2,N
1544146815.8,286047004.2,N
1544146835.7,286047004.1,N
1544146855.5,286047008.7,N
1544146875.3,286047009.3,N
1544146895.2,286047013.1,N
1544146915.0,286047010.0,N
1544146915.9,286047010.0,N
1544146935.8,286047010.8,N
1544146955.6,286047009.3,N
1544146975.4,286047012.6,N
1544146995.3,286047013.7,N
1544147015.1,286047010.0,N
1544147035.8,286047006.3,N
1544147055.7,286047005.7,N
1544147075.5,286047004.0,N
1544147095.4,286047001.6,N
1544147115.2,286046998.5,N
1544147135.0,286047001.1,N
1544147135.9,286047001.1,N
1544147155.8,286047000.8,N
1544147175.6,286046997.1,N
1544147195.4,286046999.2,N
1544147215.3,286046995.5,N
1544147235.1,286046994.2,N
1544147255.9,286046997.5,N
1544147275.7,286046993.4,N
1544147295.5,286046993.9,N
1544147315.4,286046995.7,N
1544147335.2,286047000.9,N
1544147355.0,286047001.0,N
1544147355.9,286047001.0,N
1544147375.8,286046999.2,N
1544147395.6,286047002.6,N
1544147415.5,286046999.8,N
1544147435.3,286047001.5,N
1544147455.1,286046998.1,N
1544147475.9,286046999.4,N
1544147495.7,286046999.5,N
1544147515.5,286046999.4,N
1544147535.4,286046997.3,N
1544147555.2,286046996.4,N
1544147575.0,286046991.7,N
1544147576.0,286046991.7,N
1544147595.8,286046993.4,N
1544147615.6,286046998.9,N
1544147635.5,286046998.2,N
1544147655.3,286046999.0,N
1544147675.1,286046998.5,N
1544147695.9,286046999.3,N
1544147715.7,286046999.2,N
1544147735.5,286046999.4,N
1544147755.4,286046997.7,N
1544147775.2,286046997.2,N
1544147795.1,286046998.8,N
1544147796.0,286046998.8,N
1544147815.8,286046995.3,N
1544147835.6,286046993.3,N
1544147855.5,286046991.7,Y
1544147875.3,286046994.7,P
1544147895.1,286046994.8,P
1544147915.9,286046995.8,N
1544147935.7,286046996.1,N
1544147955.6,286046993.5,Y
1544147975.4,286046996.9,P
1544147995.2,286046997.3,P
